(°F)
54°
52°
51°
50°
49°
48°
47°
(°F)
47°
44°
43°
42°
41°
40°
38°
NE
NE
NE
NE
NE
NE
NE
(mph)
5-13
7-16
7-16
7-14
7-13
7-14
7-15
(in)
0
0
0
0
0
0
0
(%)
0
0
0
0
0
0
0

Sun elevation

/ -26.2°
sun-icon
UV 4
07:17
17:17
(3°)
07:48
17:42

METAR for Sedona (KSEZ)

Time Conditions Temperature/
Dewpoint
Wind Visibility Weather Clouds Pressure Change Raw
VFR 55.4°F / 26.6°F 40º 6kt >10km - Clear - KSEZ 050155Z AUTO 04006KT 10SM CLR 13/M03 A3015 RMK AO2
VFR 59°F / 26.6°F variable 0kt >10km - Clear - KSEZ 050135Z AUTO 00000KT 10SM CLR 15/M03 A3015 RMK AO2
VFR 57.2°F / 26.6°F variable 0kt >10km - Clear - KSEZ 050115Z AUTO 00000KT 10SM CLR 14/M03 A3015 RMK AO2
VFR 59°F / 26.6°F variable 0kt >10km - Clear - KSEZ 050055Z AUTO 00000KT 10SM CLR 15/M03 A3015 RMK AO2
VFR 57.2°F / 26.6°F 130º 3kt >10km - Clear - KSEZ 050035Z AUTO 13003KT 10SM CLR 14/M03 A3015 RMK AO2
VFR 60.8°F / 26.6°F variable 0kt >10km - Clear - KSEZ 050015Z AUTO 00000KT 10SM CLR 16/M03 A3015 RMK AO2
VFR 60.8°F / 26.6°F variable 0kt >10km - Clear - KSEZ 042355Z AUTO 00000KT 10SM CLR 16/M03 A3015 RMK AO2
VFR 62.6°F / 26.6°F variable 0kt >10km - Clear - KSEZ 042335Z AUTO 00000KT 10SM CLR 17/M03 A3015 RMK AO2
VFR 62.6°F / 26.6°F 150º 3kt >10km - Clear - KSEZ 042315Z AUTO 15003KT 10SM CLR 17/M03 A3015 RMK AO2
VFR 64.4°F / 28.4°F 130º 8kt >10km - Clear - KSEZ 042255Z AUTO 13008KT 10SM CLR 18/M02 A3015 RMK AO2
VFR 64.4°F / 28.4°F 130º 7kt >10km - Clear - KSEZ 042235Z AUTO 13007KT 10SM CLR 18/M02 A3015 RMK AO2
VFR 64.4°F / 28.4°F 140º 6kt >10km - Clear - KSEZ 042215Z AUTO 14006KT 10SM CLR 18/M02 A3014 RMK AO2
VFR 64.4°F / 28.4°F 180º 5kt >10km - Clear - KSEZ 042155Z AUTO 18005KT 10SM CLR 18/M02 A3015 RMK AO2
VFR 66.2°F / 28.4°F 130º 4kt >10km - Clear - KSEZ 042135Z AUTO 13004KT 10SM CLR 19/M02 A3015 RMK AO2
VFR 64.4°F / 30.2°F 130º 3kt >10km - Clear - KSEZ 042115Z AUTO 13003KT 10SM CLR 18/M01 A3015 RMK AO2
VFR 64.4°F / 30.2°F 240º 3kt >10km - Clear - KSEZ 042055Z AUTO 24003KT 10SM CLR 18/M01 A3015 RMK AO2
VFR 64.4°F / 30.2°F 220º 3kt >10km - Clear - KSEZ 042035Z AUTO 22003KT 10SM CLR 18/M01 A3015 RMK AO2
VFR 64.4°F / 32°F 190º 8kt >10km - Clear - KSEZ 042015Z AUTO 19008KT 10SM CLR 18/00 A3017 RMK AO2
VFR 62.6°F / 30.2°F variable 0kt >10km - Clear - KSEZ 041955Z AUTO 00000KT 10SM CLR 17/M01 A3017 RMK AO2
VFR 64.4°F / 32°F 170º 4kt >10km - Clear - KSEZ 041935Z AUTO 17004KT 10SM CLR 18/00 A3018 RMK AO2
VFR 62.6°F / 32°F variable 0kt >10km - Clear - KSEZ 041915Z AUTO 00000KT 10SM CLR 17/00 A3019 RMK AO2
VFR 62.6°F / 32°F variable 0kt >10km - Clear - KSEZ 041855Z AUTO 00000KT 10SM CLR 17/00 A3019 RMK AO2
VFR 62.6°F / 32°F 170º 4kt >10km - Clear - KSEZ 041835Z AUTO 17004KT 10SM CLR 17/00 A3020 RMK AO2
VFR 60.8°F / 32°F 160º 4kt >10km - Clear - KSEZ 041815Z AUTO 16004KT 10SM CLR 16/00 A3021 RMK AO2

VFR

55.4°F / 26.6°F

[More]
Wind 40º 6kt
Visibility >10km
Weather -
Clouds Clear
Pressure
Change -
Raw KSEZ 050155Z AUTO 04006KT 10SM CLR 13/M03 A3015 RMK AO2

VFR

59°F / 26.6°F

[More]
Wind variable 0kt
Visibility >10km
Weather -
Clouds Clear
Pressure
Change -
Raw KSEZ 050135Z AUTO 00000KT 10SM CLR 15/M03 A3015 RMK AO2

VFR

57.2°F / 26.6°F

[More]
Wind variable 0kt
Visibility >10km
Weather -
Clouds Clear
Pressure
Change -
Raw KSEZ 050115Z AUTO 00000KT 10SM CLR 14/M03 A3015 RMK AO2

VFR

59°F / 26.6°F

[More]
Wind variable 0kt
Visibility >10km
Weather -
Clouds Clear
Pressure
Change -
Raw KSEZ 050055Z AUTO 00000KT 10SM CLR 15/M03 A3015 RMK AO2

VFR

57.2°F / 26.6°F

[More]
Wind 130º 3kt
Visibility >10km
Weather -
Clouds Clear
Pressure
Change -
Raw KSEZ 050035Z AUTO 13003KT 10SM CLR 14/M03 A3015 RMK AO2

VFR

60.8°F / 26.6°F

[More]
Wind variable 0kt
Visibility >10km
Weather -
Clouds Clear
Pressure
Change -
Raw KSEZ 050015Z AUTO 00000KT 10SM CLR 16/M03 A3015 RMK AO2

VFR

60.8°F / 26.6°F

[More]
Wind variable 0kt
Visibility >10km
Weather -
Clouds Clear
Pressure
Change -
Raw KSEZ 042355Z AUTO 00000KT 10SM CLR 16/M03 A3015 RMK AO2

VFR

62.6°F / 26.6°F

[More]
Wind variable 0kt
Visibility >10km
Weather -
Clouds Clear
Pressure
Change -
Raw KSEZ 042335Z AUTO 00000KT 10SM CLR 17/M03 A3015 RMK AO2

VFR

62.6°F / 26.6°F

[More]
Wind 150º 3kt
Visibility >10km
Weather -
Clouds Clear
Pressure
Change -
Raw KSEZ 042315Z AUTO 15003KT 10SM CLR 17/M03 A3015 RMK AO2

VFR

64.4°F / 28.4°F

[More]
Wind 130º 8kt
Visibility >10km
Weather -
Clouds Clear
Pressure
Change -
Raw KSEZ 042255Z AUTO 13008KT 10SM CLR 18/M02 A3015 RMK AO2

VFR

64.4°F / 28.4°F

[More]
Wind 130º 7kt
Visibility >10km
Weather -
Clouds Clear
Pressure
Change -
Raw KSEZ 042235Z AUTO 13007KT 10SM CLR 18/M02 A3015 RMK AO2

VFR

64.4°F / 28.4°F

[More]
Wind 140º 6kt
Visibility >10km
Weather -
Clouds Clear
Pressure
Change -
Raw KSEZ 042215Z AUTO 14006KT 10SM CLR 18/M02 A3014 RMK AO2

VFR

64.4°F / 28.4°F

[More]
Wind 180º 5kt
Visibility >10km
Weather -
Clouds Clear
Pressure
Change -
Raw KSEZ 042155Z AUTO 18005KT 10SM CLR 18/M02 A3015 RMK AO2

VFR

66.2°F / 28.4°F

[More]
Wind 130º 4kt
Visibility >10km
Weather -
Clouds Clear
Pressure
Change -
Raw KSEZ 042135Z AUTO 13004KT 10SM CLR 19/M02 A3015 RMK AO2

VFR

64.4°F / 30.2°F

[More]
Wind 130º 3kt
Visibility >10km
Weather -
Clouds Clear
Pressure
Change -
Raw KSEZ 042115Z AUTO 13003KT 10SM CLR 18/M01 A3015 RMK AO2

VFR

64.4°F / 30.2°F

[More]
Wind 240º 3kt
Visibility >10km
Weather -
Clouds Clear
Pressure
Change -
Raw KSEZ 042055Z AUTO 24003KT 10SM CLR 18/M01 A3015 RMK AO2

VFR

64.4°F / 30.2°F

[More]
Wind 220º 3kt
Visibility >10km
Weather -
Clouds Clear
Pressure
Change -
Raw KSEZ 042035Z AUTO 22003KT 10SM CLR 18/M01 A3015 RMK AO2

VFR

64.4°F / 32°F

[More]
Wind 190º 8kt
Visibility >10km
Weather -
Clouds Clear
Pressure
Change -
Raw KSEZ 042015Z AUTO 19008KT 10SM CLR 18/00 A3017 RMK AO2

VFR

62.6°F / 30.2°F

[More]
Wind variable 0kt
Visibility >10km
Weather -
Clouds Clear
Pressure
Change -
Raw KSEZ 041955Z AUTO 00000KT 10SM CLR 17/M01 A3017 RMK AO2

VFR

64.4°F / 32°F

[More]
Wind 170º 4kt
Visibility >10km
Weather -
Clouds Clear
Pressure
Change -
Raw KSEZ 041935Z AUTO 17004KT 10SM CLR 18/00 A3018 RMK AO2

VFR

62.6°F / 32°F

[More]
Wind variable 0kt
Visibility >10km
Weather -
Clouds Clear
Pressure
Change -
Raw KSEZ 041915Z AUTO 00000KT 10SM CLR 17/00 A3019 RMK AO2

VFR

62.6°F / 32°F

[More]
Wind variable 0kt
Visibility >10km
Weather -
Clouds Clear
Pressure
Change -
Raw KSEZ 041855Z AUTO 00000KT 10SM CLR 17/00 A3019 RMK AO2

VFR

62.6°F / 32°F

[More]
Wind 170º 4kt
Visibility >10km
Weather -
Clouds Clear
Pressure
Change -
Raw KSEZ 041835Z AUTO 17004KT 10SM CLR 17/00 A3020 RMK AO2

VFR

60.8°F / 32°F

[More]
Wind 160º 4kt
Visibility >10km
Weather -
Clouds Clear
Pressure
Change -
Raw KSEZ 041815Z AUTO 16004KT 10SM CLR 16/00 A3021 RMK AO2

TAF for Sedona (KSEZ)

From till


From till Wind variable 5kt. Visibility 10km or more. Sky Clear.
From till Wind 40º 8kt. Gust 14kt. Visibility 10km or more. Sky Clear.
From till Wind variable 5kt. Visibility 10km or more. Few Clouds 10000ft.

Raw: KSEZ 042330Z 0500/0524 VRB05KT P6SM SKC FM050330 04008G14KT P6SM SKC FM051600 VRB05KT P6SM FEW100

Radar and precipitation nowcast for Sedona

Drizzle
Light
Moderate
Heavy
Very Heavy
Hail

The location marker is placed on Sedona. This animation shows the precipitation radar for the last hour, as well as a 1h forecast. Drizzle or light snow fall might be invisible for the radar. Precipitation intensity is colour coded, ranging from light blue to orange.

Current satellite images for Sedona, United States of America

The location marker is placed on Sedona. [More]

The real-time satellite image combines visible light during daytime with infrared radiation during nighttime. At night, the image is not dark as infrared radiation can detect temperature differences. Unfortunately, low clouds and fog are difficult to distinguish from ground temperatures and thus can be almost invisible during the night. Meteosat satellite images for Europe are updated in real-time every 5 minutes. GOES-16/GOES-17 (North & South America) and Himawari (Asia) images update every 10 minutes.